IRIDIUM 34 [-]

Last updated on Tue Jan 09 2018 00:19:14 GMT+0000 (Coordinated Universal Time)

1 24969U 97056E 18008.02445641 .28118293 -13397-5 35827-3 0 9991 2 24969 86.3612 230.1096 0037510 75.0937 285.7049 16.45697571 62280

Satellite not in orbit